User: anonymous   Login
Location: Unspecified
(0.0000°N, 0.0000°E)
Time: 01:46:33
(UTC+01:00)
Language:

Cosmos 1703 Rocket - Orbit

View from above orbital plane
View from above orbital plane
View from above satellite
View from above satellite

Ground track
Ground track

The orbit data is extracted from the following two-line orbital elements,

1 16263U 85108B   17016.36600580  .00000078  00000-0  66241-5 0  9992
2 16263  82.5034 256.7375 0021331 125.7003 342.0537 14.82964861681889
Epoch (UTC): 16 January 2017 08:47:02
Eccentricity: 0.0021331
inclination: 82.5034°
perigee height: 605 km
apogee height: 635 km
right ascension of ascending node: 256.7375°
argument of perigee: 125.7003°
revolutions per day: 14.82964861
mean anomaly at epoch: 342.0537°
orbit number at epoch: 68188

The dashed part of the orbit path shows where the satellite is in the earth's shadow,  

DLR